Regional Weather Roundup
Issued by NWS

Home | Current Version | Previous Version | Text Only | Print | Product List | Glossary Off
Versions: 1 2 3 4 5 6 7 8 9 10 11 12 13 14 15 16 17 18 19 20 21 22 23 24 25 26 27 28 29 30 31 32 33 34 35 36 37 38 39 40 41 42 43 44 45 46 47 48 49 50

000
ASUS45 KBOU 080607
RWRCO

WEATHER ROUNDUP FOR COLORADO
NATIONAL WEATHER SERVICE DENVER/BOULDER CO
1100 PM MST SUN FEB 07 2016

NOTE: "FAIR" INDICATES FEW OR NO CLOUDS BELOW 12000 FEET WITH NO
SIGNIFICANT WEATHER AND/OR OBSTRUCTIONS TO VISIBILITY.

COZ001>005-013-030-031-080700-
...NORTHWEST COLORADO...

CITY           SKY/WX    TMP DP  RH WIND       PRES   REMARKS
CRAIG          CLOUDY    -2  -7  79 CALM      30.55R
HAYDEN         CLOUDY    10   7  85 CALM      30.53R
MEEKER         CLOUDY    11   6  81 CALM      30.53R
MOUNT WERNER   NOT AVBL
STEAMBOAT SPGS CLOUDY    19  13  77 CALM      30.52R
WALDEN         CLOUDY    25  14  63 SW9       30.44S WCI  15
$$

COZ006>008-011-080700-
...WEST CENTRAL VALLEYS...

CITY           SKY/WX    TMP DP  RH WIND       PRES   REMARKS
GRAND JUNCTION CLOUDY    15  13  91 CALM      30.54S
MONTROSE       CLOUDY    19  12  74 SE7       30.55S WCI  10
EAGLE          CLEAR     18  16  93 CALM      30.53S
RIFLE          CLOUDY    14   8  77 S3        30.55R
DELTA          CLOUDY    24  19  80 E3        30.56R
NUCLA          CLOUDY    28  19  69 CALM      30.54R
$$

COZ017>023-064>068-080700-
...SOUTHWEST COLORADO...

CITY           SKY/WX    TMP DP  RH WIND       PRES   REMARKS
DURANGO        CLOUDY    11   8  88 CALM      30.42S
CORTEZ         CLOUDY    20  15  81 E8        30.42R WCI  10
PAGOSA SPRINGS CLOUDY    16  15  96 CALM      30.42S
TELLURIDE      NOT AVBL
WOLF CREEK PAS CLOUDY    23   0  36 NE10G30   30.50R WCI  12
$$

COZ009-010-012-014-032>034-037-058>063-080700-
...CENTRAL COLORADO...

CITY           SKY/WX    TMP DP  RH WIND       PRES   REMARKS
ASPEN          CLOUDY    16   8  71 SW8       30.50S WCI   5
BUENA VISTA    CLOUDY    31  11  42 NW16G33   30.35S WCI  20
COPPER MTN     CLOUDY    18   9  68 W16G33    30.44S WCI   3
BERTHOUD PASS  CLOUDY     7  -4  61 NW29G37   30.37S WCI -16
COTTONWOOD PAS CLOUDY    32   5  32 E7G17     30.36F WCI  26
GUNNISON       CLOUDY    -4 -11  71 CALM      30.54S
KREMMLING      CLOUDY    14   7  73 CALM      30.51R
LEADVILLE      CLOUDY    18   6  59 N13       30.45S WCI   5
MONARCH PASS   CLOUDY    14   5  67 MISG      30.53R
SALIDA         NOT AVBL
SUNLIGHT       CLOUDY    21  14  73 W9          N/A  WCI  11
WILKERSON PASS CLOUDY    21   5  49 N22G38    30.32S WCI   5
$$

COZ069>075-080700-
...SAN LUIS VALLEY/SANGRE DE CRISTO MOUNTAINS...

CITY           SKY/WX    TMP DP  RH WIND       PRES   REMARKS
ALAMOSA        CLOUDY    14  11  87 S3        30.41R
LA VETA PASS   CLOUDY    27   9  46 S6        30.36S WCI  20
SAGUACHE       CLOUDY    32  12  43 N16G28    30.42S WCI  21
$$

COZ035-036-038>040-080700-
...NORTHERN COLORADO FRONT RANGE...

CITY           SKY/WX    TMP DP  RH WIND       PRES   REMARKS
DENVER INTL AP CLOUDY    16  11  80 SE14      30.38R WCI   2
DMNS CITY PARK   N/A     24  16  73 E8G14     30.40R WCI  14
AURORA         PTCLDY    19  14  79 SE10      30.39R WCI   8
FRONT RANGE AP NOT AVBL
ERIE MUNI ARPT CLOUDY    23  18  81 S3        30.39S
BOULDER MUN AP CLOUDY    27  19  74 SW3       30.39R
CENTENNIAL     CLOUDY    20  16  84 SE14      30.37S WCI   7
BROOMFIELD     CLOUDY    27  19  74 S8        30.38R WCI  18
FORT COLLINS   CLOUDY    19  16  86 S9        30.39S WCI   9
LONGMONT       CLOUDY    23  19  83 SW3       30.42R
$$

COZ041-046-047-076>085-087-088-080700-
...PIKES PEAK/PALMER DIVIDE AND SOUTHERN FOOTHILLS...

CITY           SKY/WX    TMP DP  RH WIND       PRES   REMARKS
COLO. SPRINGS  CLOUDY    23  19  85 S6        30.39S WCI  16
A. F. ACADEMY  CLOUDY    22  20  91 S5        30.36S WCI  16
SCHRIEVER AFB  CLOUDY    21  20  95 W6        30.39S WCI  14
ELLICOTT       NOT AVBL
FALCON         CLOUDY    21  19  94 CALM      30.37S
FORT CARSON    CLOUDY    24  20  87 CALM      30.38S
LIMON          CLOUDY    13   8  81 W5        30.38S WCI   5
MONUMENT HILL  CLOUDY    19  18  93 SE7       30.36S FOG     WCI  10
TRINIDAD       CLOUDY    21  16  81 CALM      30.40R
$$

COZ042>045-048>051-090-091-080700-
...NORTHEAST COLORADO...

CITY           SKY/WX    TMP DP  RH WIND       PRES   REMARKS
GREELEY ARPT   CLOUDY    18  14  86 NW6       30.42R WCI   9
AKRON          CLOUDY    26  12  55 NW25G40   30.35F WCI  11
BURLINGTON     CLOUDY    27  15  61 NW21      30.36R WCI  13
WRAY           CLEAR     28  13  55 NW21G28   30.34S WCI  14
STERLING       CLEAR     28  14  54 N18G25    30.36R WCI  16
HOLYOKE        CLEAR     32  14  47 NW21G29   30.32S WCI  20
FORT MORGAN    PTCLDY    17  11  78 W10       30.40R WCI   5
$$

COZ086-089-092>099-080700-
...SOUTHEAST COLORADO...

CITY           SKY/WX    TMP DP  RH WIND       PRES   REMARKS
PUEBLO         CLOUDY    30  21  69 CALM      30.43S
LA JUNTA       CLOUDY    28  22  78 W9        30.44R WCI  19
LAMAR          CLOUDY    32  18  56 NW9       30.42R WCI  24
SPRINGFIELD      N/A     21  16  81 NW12      30.41R WCI   9
$$



USA.gov is the U.S. government's official web portal to all federal, state and local government web resources and services.